Location: Unspecified
(0.0000°N, 0.0000°E)
Time: 11:49:46
(UTC+00:00)

Envisat - Pass Details

Date: 05 October 2022
Orbit: 763 x 765 km, 98.2° (Epoch: 08 December)

Event Time Altitude Azimuth Distance (km) Brightness Sun altitude
Rises 02:57:27 0° 43° (NE) 3,217 6.6 -42.6°
Reaches altitude 10° 03:00:31 10° 62° (ENE) 2,294 5.9 -41.8°
Maximum altitude 03:03:45 17° 103° (ESE) 1,848 5.5 -41.0°
Enters shadow 03:03:49 17° 104° (ESE) 1,848 5.5 -41.0°
Exits shadow 03:05:06 16° 122° (ESE) 1,935 5.6 -40.7°
Drops below altitude 10° 03:06:59 10° 143° (SE) 2,299 5.8 -40.2°
Sets 03:10:03 0° 162° (SSE) 3,227 6.5 -39.5°
